Flag for Spain Weather past 2 weeks in Arrecife, Canary Islands, Spain

Now
81 °F

Passing clouds.


Feels Like: 83 °F
Forecast: 73 / 82 °F
Wind: 18 mph from North

Location: Lanzarote / Aeropuerto

Current Time: Aug 31, 2014 at 12:25:34 PM

Latest Report: Aug 31, 2014 at 11:30 AM


Visibility: N/A

Pressure: 30.07 "Hg

Humidity: 62%

Dew point: 66 °F

Location of ArrecifeLocation

Historic Weather in Arrecife — Graph

°F

Arrecife temperature yesterday

Maximum temperature yesterday: 86 °F (at 2:00 PM)
Minimum temperature yesterday: 72 °F (at 6:30 AM)
Average temperature yesterday: 78 °F

Past Weeks' High & Low Weather Summary

 TemperatureHumidityPressure
High88 °F (Aug 20, 4:30 PM)89% (Aug 21, 1:30 PM)30.09 "Hg (Aug 21, 1:30 PM)
Low70 °F (Aug 18, 6:00 AM)43% (Aug 21, 7:00 PM)29.89 "Hg (Aug 17, 4:30 PM)
Average77 °F71%30.00 "Hg
* Reported Aug 16 11:00 AM — Aug 31 11:30 AM, Arrecife, Weather by CustomWeather, © 2014

Note: Actual official high and low records may vary slightly from our data, if they occured in-between our weather recording intervals... More about our weather records

Advertising

Arrecife weather history for previous 24 hours

 ConditionsComfort  
Time TempWeatherWind HumidityBarometerVisibility
11:30 AM
Aug 31
81 °FPassing clouds.18 mph62%30.07 "HgN/A
11:00 AM81 °FPassing clouds.17 mph62%30.07 "HgN/A
10:30 AM79 °FPassing clouds.17 mph65%30.07 "HgN/A
10:00 AM77 °FPassing clouds.15 mph69%30.04 "HgN/A
9:30 AM77 °FPassing clouds.15 mph69%30.04 "HgN/A
9:00 AM75 °FPassing clouds.15 mph74%30.04 "HgN/A
8:30 AM73 °FPassing clouds.14 mph83%30.04 "HgN/A
8:00 AM73 °FPassing clouds.12 mph83%30.04 "HgN/A
7:30 AM73 °FPassing clouds.14 mph78%30.04 "HgN/A
7:00 AM73 °FPassing clouds.12 mph83%30.01 "HgN/A
6:30 AM73 °FPassing clouds.14 mph83%30.01 "HgN/A
6:00 AM73 °FPassing clouds.14 mph83%30.01 "HgN/A
1:00 AM73 °FPassing clouds.26 mph83%30.04 "HgN/A
12:30 AM73 °FPassing clouds.25 mph83%30.04 "HgN/A
12:00 AM73 °FPassing clouds.22 mph83%30.04 "HgN/A
11:30 PM
Aug 30
73 °FPassing clouds.18 mph83%30.07 "HgN/A
11:00 PM73 °FPassing clouds.21 mph83%30.07 "HgN/A
10:30 PM73 °FPassing clouds.20 mph78%30.07 "HgN/A
9:30 PM75 °FPassing clouds.13 mph78%30.04 "HgN/A
9:00 PM75 °FPassing clouds.15 mph78%30.04 "HgN/A
8:30 PM75 °FPassing clouds.16 mph74%30.04 "HgN/A
8:00 PM77 °FPassing clouds.21 mph69%30.04 "HgN/A
7:30 PM79 °FPassing clouds.20 mph61%30.04 "HgN/A
7:00 PM79 °FPassing clouds.22 mph61%30.04 "HgN/A
6:30 PM82 °FPassing clouds.24 mph58%30.01 "HgN/A
6:00 PM82 °FPassing clouds.24 mph58%30.01 "HgN/A
5:30 PM82 °FPassing clouds.26 mph55%30.01 "HgN/A
5:00 PM82 °FPassing clouds.24 mph51%30.01 "HgN/A
4:30 PM84 °FPassing clouds.23 mph55%30.01 "HgN/A
4:00 PM84 °FPassing clouds.24 mph55%30.04 "HgN/A
3:30 PM84 °FPassing clouds.23 mph55%30.04 "HgN/A
3:00 PM84 °FPassing clouds.21 mph51%30.04 "HgN/A
2:30 PM84 °FPassing clouds.20 mph55%30.07 "HgN/A
2:00 PM86 °FPassing clouds.20 mph49%30.07 "HgN/A
1:30 PM84 °FPassing clouds.20 mph51%30.07 "HgN/A
1:00 PM84 °FPassing clouds.20 mph51%30.07 "HgN/A
12:30 PM82 °FPassing clouds.20 mph55%30.09 "HgN/A
12:00 PM82 °FPassing clouds.17 mph58%30.09 "HgN/A
Weather by CustomWeather, © 2014

See weather overviewHow to use our weather pages